Year,Month,Day,Hour,Minute,Value (Times are PST for temperature in C)
2014,10,04,00,00,13.90
2014,10,04,00,01,13.90
2014,10,04,00,02,13.90
2014,10,04,00,03,13.90
2014,10,04,00,04,13.90
2014,10,04,00,05,13.90
2014,10,04,00,06,13.90
2014,10,04,00,07,13.90
2014,10,04,00,08,13.90
2014,10,04,00,09,13.90
2014,10,04,00,10,13.90
2014,10,04,00,11,13.80
2014,10,04,00,12,13.80
2014,10,04,00,13,13.80
2014,10,04,00,14,13.80
2014,10,04,00,15,13.80
2014,10,04,00,16,13.80
2014,10,04,00,17,13.80
2014,10,04,00,18,13.80
2014,10,04,00,19,13.80
2014,10,04,00,20,13.70
2014,10,04,00,21,13.70
2014,10,04,00,22,13.70
2014,10,04,00,23,13.70
2014,10,04,00,24,13.70
2014,10,04,00,25,13.70
2014,10,04,00,26,13.70
2014,10,04,00,27,13.70
2014,10,04,00,28,13.70
2014,10,04,00,29,13.70
2014,10,04,00,30,13.60
2014,10,04,00,31,13.60
2014,10,04,00,32,13.60
2014,10,04,00,33,13.60
2014,10,04,00,34,13.60
2014,10,04,00,35,13.60
2014,10,04,00,36,13.60
2014,10,04,00,37,13.60
2014,10,04,00,38,13.60
2014,10,04,00,39,13.60
2014,10,04,00,40,13.60
2014,10,04,00,41,13.60
2014,10,04,00,42,13.60
2014,10,04,00,43,13.60
2014,10,04,00,44,13.60
2014,10,04,00,45,13.60
2014,10,04,00,46,13.60
2014,10,04,00,47,13.60
2014,10,04,00,48,13.60
2014,10,04,00,49,13.60
2014,10,04,00,50,13.60
2014,10,04,00,51,13.60
2014,10,04,00,52,13.60
2014,10,04,00,53,13.60
2014,10,04,00,54,13.60
2014,10,04,00,55,13.60
2014,10,04,00,56,13.60
2014,10,04,00,57,13.60
2014,10,04,00,58,13.60
2014,10,04,00,59,13.70
2014,10,04,01,00,13.70
2014,10,04,01,01,13.60
2014,10,04,01,02,13.60
2014,10,04,01,03,13.60
2014,10,04,01,04,13.60
2014,10,04,01,05,13.60
2014,10,04,01,06,13.60
2014,10,04,01,07,13.60
2014,10,04,01,08,13.60
2014,10,04,01,09,13.60
2014,10,04,01,10,13.60
2014,10,04,01,11,13.60
2014,10,04,01,12,13.60
2014,10,04,01,13,13.60
2014,10,04,01,14,13.60
2014,10,04,01,15,13.60
2014,10,04,01,16,13.70
2014,10,04,01,17,13.70
2014,10,04,01,18,13.70
2014,10,04,01,19,13.70
2014,10,04,01,20,13.70
2014,10,04,01,21,13.70
2014,10,04,01,22,13.70
2014,10,04,01,23,13.80
2014,10,04,01,24,13.80
2014,10,04,01,25,13.80
2014,10,04,01,26,13.80
2014,10,04,01,27,13.80
2014,10,04,01,28,13.80
2014,10,04,01,29,13.80
2014,10,04,01,30,13.80
2014,10,04,01,31,13.90
2014,10,04,01,32,13.90
2014,10,04,01,33,13.80
2014,10,04,01,34,13.80
2014,10,04,01,35,13.80
2014,10,04,01,36,13.80
2014,10,04,01,37,13.80
2014,10,04,01,38,13.80
2014,10,04,01,39,13.80
2014,10,04,01,40,13.80
2014,10,04,01,41,13.80
2014,10,04,01,42,13.80
2014,10,04,01,43,13.80
2014,10,04,01,44,13.80
2014,10,04,01,45,13.80
2014,10,04,01,46,13.80
2014,10,04,01,47,13.80
2014,10,04,01,48,13.80
2014,10,04,01,49,13.80
2014,10,04,01,50,13.80
2014,10,04,01,51,13.80
2014,10,04,01,52,13.80
2014,10,04,01,53,13.80
2014,10,04,01,54,13.80
2014,10,04,01,55,13.80
2014,10,04,01,56,13.80
2014,10,04,01,57,13.80
2014,10,04,01,58,13.80
2014,10,04,01,59,13.70
2014,10,04,02,00,13.70
2014,10,04,02,01,13.70
2014,10,04,02,02,13.70
2014,10,04,02,03,13.70
2014,10,04,02,04,13.70
2014,10,04,02,05,13.70
2014,10,04,02,06,13.70
2014,10,04,02,07,13.80
2014,10,04,02,08,13.80
2014,10,04,02,09,13.80
2014,10,04,02,10,13.80
2014,10,04,02,11,13.80
2014,10,04,02,12,13.80
2014,10,04,02,13,13.80
2014,10,04,02,14,13.80
2014,10,04,02,15,13.70
2014,10,04,02,16,13.70
2014,10,04,02,17,13.70
2014,10,04,02,18,13.70
2014,10,04,02,19,13.70
2014,10,04,02,20,13.60
2014,10,04,02,21,13.60
2014,10,04,02,22,13.50
2014,10,04,02,23,13.50
2014,10,04,02,24,13.40
2014,10,04,02,25,13.30
2014,10,04,02,26,13.30
2014,10,04,02,27,13.20
2014,10,04,02,28,13.20
2014,10,04,02,29,13.20
2014,10,04,02,30,13.10
2014,10,04,02,31,13.10
2014,10,04,02,32,13.10
2014,10,04,02,33,13.00
2014,10,04,02,34,13.00
2014,10,04,02,35,13.00
2014,10,04,02,36,12.90
2014,10,04,02,37,12.90
2014,10,04,02,38,12.90
2014,10,04,02,39,12.90
2014,10,04,02,40,12.90
2014,10,04,02,41,12.90
2014,10,04,02,42,12.90
2014,10,04,02,43,12.80
2014,10,04,02,44,12.80
2014,10,04,02,45,12.80
2014,10,04,02,46,12.80
2014,10,04,02,47,12.80
2014,10,04,02,48,12.80
2014,10,04,02,49,12.80
2014,10,04,02,50,12.70
2014,10,04,02,51,12.70
2014,10,04,02,52,12.60
2014,10,04,02,53,12.60
2014,10,04,02,54,12.50
2014,10,04,02,55,12.50
2014,10,04,02,56,12.40
2014,10,04,02,57,12.40
2014,10,04,02,58,12.40
2014,10,04,02,59,12.40
2014,10,04,03,00,12.40
2014,10,04,03,01,12.40
2014,10,04,03,02,12.40
2014,10,04,03,03,12.30
2014,10,04,03,04,12.30
2014,10,04,03,05,12.30
2014,10,04,03,06,12.30
2014,10,04,03,07,12.30
2014,10,04,03,08,12.20
2014,10,04,03,09,12.20
2014,10,04,03,10,12.20
2014,10,04,03,11,12.20
2014,10,04,03,12,12.20
2014,10,04,03,13,12.10
2014,10,04,03,14,12.10
2014,10,04,03,15,12.10
2014,10,04,03,16,12.20
2014,10,04,03,17,12.20
2014,10,04,03,18,12.20
2014,10,04,03,19,12.20
2014,10,04,03,20,12.20
2014,10,04,03,21,12.20
2014,10,04,03,22,12.30
2014,10,04,03,23,12.30
2014,10,04,03,24,12.30
2014,10,04,03,25,12.30
2014,10,04,03,26,12.30
2014,10,04,03,27,12.30
2014,10,04,03,28,12.30
2014,10,04,03,29,12.30
2014,10,04,03,30,12.30
2014,10,04,03,31,12.30
2014,10,04,03,32,12.30
2014,10,04,03,33,12.30
2014,10,04,03,34,12.30
2014,10,04,03,35,12.30
2014,10,04,03,36,12.30
2014,10,04,03,37,12.30
2014,10,04,03,38,12.30
2014,10,04,03,39,12.30
2014,10,04,03,40,12.30
2014,10,04,03,41,12.30
2014,10,04,03,42,12.30
2014,10,04,03,43,12.30
2014,10,04,03,44,12.30
2014,10,04,03,45,12.30
2014,10,04,03,46,12.30
2014,10,04,03,47,12.30
2014,10,04,03,48,12.30
2014,10,04,03,49,12.30
2014,10,04,03,50,12.30
2014,10,04,03,51,12.30
2014,10,04,03,52,12.30
2014,10,04,03,53,12.30
2014,10,04,03,54,12.30
2014,10,04,03,55,12.30
2014,10,04,03,56,12.30
2014,10,04,03,57,12.30
2014,10,04,03,58,12.30
2014,10,04,03,59,12.20
2014,10,04,04,00,12.20
2014,10,04,04,01,12.30
2014,10,04,04,02,12.30
2014,10,04,04,03,12.30
2014,10,04,04,04,12.30
2014,10,04,04,05,12.30
2014,10,04,04,06,12.30
2014,10,04,04,07,12.30
2014,10,04,04,08,12.30
2014,10,04,04,09,12.30
2014,10,04,04,10,12.30
2014,10,04,04,11,12.30
2014,10,04,04,12,12.30
2014,10,04,04,13,12.30
2014,10,04,04,14,12.30
2014,10,04,04,15,12.30
2014,10,04,04,16,12.30
2014,10,04,04,17,12.30
2014,10,04,04,18,12.30
2014,10,04,04,19,12.30
2014,10,04,04,20,12.30
2014,10,04,04,21,12.30
2014,10,04,04,22,12.30
2014,10,04,04,23,12.30
2014,10,04,04,24,12.40
2014,10,04,04,25,12.40
2014,10,04,04,26,12.40
2014,10,04,04,27,12.40
2014,10,04,04,28,12.40
2014,10,04,04,29,12.40
2014,10,04,04,30,12.40
2014,10,04,04,31,12.40
2014,10,04,04,32,12.40
2014,10,04,04,33,12.40
2014,10,04,04,34,12.40
2014,10,04,04,35,12.40
2014,10,04,04,36,12.40
2014,10,04,04,37,12.50
2014,10,04,04,38,12.50
2014,10,04,04,39,12.50
2014,10,04,04,40,12.50
2014,10,04,04,41,12.50
2014,10,04,04,42,12.50
2014,10,04,04,43,12.50
2014,10,04,04,44,12.50
2014,10,04,04,45,12.50
2014,10,04,04,46,12.50
2014,10,04,04,47,12.50
2014,10,04,04,48,12.50
2014,10,04,04,49,12.60
2014,10,04,04,50,12.60
2014,10,04,04,51,12.60
2014,10,04,04,52,12.60
2014,10,04,04,53,12.60
2014,10,04,04,54,12.50
2014,10,04,04,55,12.50
2014,10,04,04,56,12.50
2014,10,04,04,57,12.40
2014,10,04,04,58,12.40
2014,10,04,04,59,12.40
2014,10,04,05,00,12.40
2014,10,04,05,01,12.40
2014,10,04,05,02,12.40
2014,10,04,05,03,12.40
2014,10,04,05,04,12.40
2014,10,04,05,05,12.40
2014,10,04,05,06,12.50
2014,10,04,05,07,12.40
2014,10,04,05,08,12.40
2014,10,04,05,09,12.50
2014,10,04,05,10,12.50
2014,10,04,05,11,12.50
2014,10,04,05,12,12.50
2014,10,04,05,13,12.50
2014,10,04,05,14,12.50
2014,10,04,05,15,12.50
2014,10,04,05,16,12.50
2014,10,04,05,17,12.50
2014,10,04,05,18,12.40
2014,10,04,05,19,12.40
2014,10,04,05,20,12.40
2014,10,04,05,21,12.40
2014,10,04,05,22,12.40
2014,10,04,05,23,12.50
2014,10,04,05,24,12.50
2014,10,04,05,25,12.50
2014,10,04,05,26,12.60
2014,10,04,05,27,12.60
2014,10,04,05,28,12.60
2014,10,04,05,29,12.60
2014,10,04,05,30,12.60
2014,10,04,05,31,12.60
2014,10,04,05,32,12.60
2014,10,04,05,33,12.60
2014,10,04,05,34,12.60
2014,10,04,05,35,12.60
2014,10,04,05,36,12.60
2014,10,04,05,37,12.60
2014,10,04,05,38,12.60
2014,10,04,05,39,12.60
2014,10,04,05,40,12.60
2014,10,04,05,41,12.60
2014,10,04,05,42,12.60
2014,10,04,05,43,12.60
2014,10,04,05,44,12.60
2014,10,04,05,45,12.60
2014,10,04,05,46,12.60
2014,10,04,05,47,12.60
2014,10,04,05,48,12.60
2014,10,04,05,49,12.60
2014,10,04,05,50,12.60
2014,10,04,05,51,12.60
2014,10,04,05,52,12.60
2014,10,04,05,53,12.60
2014,10,04,05,54,12.60
2014,10,04,05,55,12.60
2014,10,04,05,56,12.60
2014,10,04,05,57,12.60
2014,10,04,05,58,12.60
2014,10,04,05,59,12.60
2014,10,04,06,00,12.60
2014,10,04,06,01,12.60
2014,10,04,06,02,12.60
2014,10,04,06,03,12.60
2014,10,04,06,04,12.60
2014,10,04,06,05,12.60
2014,10,04,06,06,12.60
2014,10,04,06,07,12.60
2014,10,04,06,08,12.60
2014,10,04,06,09,12.60
2014,10,04,06,10,12.60
2014,10,04,06,11,12.60
2014,10,04,06,12,12.60
2014,10,04,06,13,12.60
2014,10,04,06,14,12.60
2014,10,04,06,15,12.60
2014,10,04,06,16,12.60
2014,10,04,06,17,12.70
2014,10,04,06,18,12.70
2014,10,04,06,19,12.80
2014,10,04,06,20,12.80
2014,10,04,06,21,12.80
2014,10,04,06,22,12.80
2014,10,04,06,23,12.80
2014,10,04,06,24,12.90
2014,10,04,06,25,12.90
2014,10,04,06,26,12.90
2014,10,04,06,27,12.90
2014,10,04,06,28,12.90
2014,10,04,06,29,12.90
2014,10,04,06,30,12.90
2014,10,04,06,31,12.80
2014,10,04,06,32,12.80
2014,10,04,06,33,12.80
2014,10,04,06,34,12.80
2014,10,04,06,35,12.80
2014,10,04,06,36,12.80
2014,10,04,06,37,12.80
2014,10,04,06,38,12.80
2014,10,04,06,39,12.70
2014,10,04,06,40,12.70
2014,10,04,06,41,12.70
2014,10,04,06,42,12.70
2014,10,04,06,43,12.80
2014,10,04,06,44,12.80
2014,10,04,06,45,12.80
2014,10,04,06,46,12.80
2014,10,04,06,47,12.80
2014,10,04,06,48,12.80
2014,10,04,06,49,12.80
2014,10,04,06,50,12.80
2014,10,04,06,51,12.80
2014,10,04,06,52,12.80
2014,10,04,06,53,12.80
2014,10,04,06,54,12.80
2014,10,04,06,55,12.80
2014,10,04,06,56,12.80
2014,10,04,06,57,12.80
2014,10,04,06,58,12.80
2014,10,04,06,59,12.80
2014,10,04,07,00,12.80
2014,10,04,07,01,12.80
2014,10,04,07,02,12.80
2014,10,04,07,03,12.80
2014,10,04,07,04,12.80
2014,10,04,07,05,12.80
2014,10,04,07,06,12.80
2014,10,04,07,07,12.80
2014,10,04,07,08,12.80
2014,10,04,07,09,12.80
2014,10,04,07,10,12.80
2014,10,04,07,11,12.80
2014,10,04,07,12,12.80
2014,10,04,07,13,12.80
2014,10,04,07,14,12.80
2014,10,04,07,15,12.80
2014,10,04,07,16,12.80
2014,10,04,07,17,12.80
2014,10,04,07,18,12.80
2014,10,04,07,19,12.80
2014,10,04,07,20,12.80
2014,10,04,07,21,12.80
2014,10,04,07,22,12.80
2014,10,04,07,23,12.80
2014,10,04,07,24,12.80
2014,10,04,07,25,12.90
2014,10,04,07,26,12.90
2014,10,04,07,27,12.90
2014,10,04,07,28,12.90
2014,10,04,07,29,13.00
2014,10,04,07,30,13.00
2014,10,04,07,31,13.00
2014,10,04,07,32,13.00
2014,10,04,07,33,13.00
2014,10,04,07,34,13.00
2014,10,04,07,35,13.00
2014,10,04,07,36,13.00
2014,10,04,07,37,13.00
2014,10,04,07,38,13.00
2014,10,04,07,39,13.00
2014,10,04,07,40,13.00
2014,10,04,07,41,13.00
2014,10,04,07,42,12.90
2014,10,04,07,43,12.90
2014,10,04,07,44,12.90
2014,10,04,07,45,12.90
2014,10,04,07,46,12.90
2014,10,04,07,47,12.90
2014,10,04,07,48,12.90
2014,10,04,07,49,12.90
2014,10,04,07,50,12.90
2014,10,04,07,51,12.90
2014,10,04,07,52,12.90
2014,10,04,07,53,13.00
2014,10,04,07,54,13.00
2014,10,04,07,55,13.00
2014,10,04,07,56,13.00
2014,10,04,07,57,13.00
2014,10,04,07,58,13.00
2014,10,04,07,59,13.00
2014,10,04,08,00,13.00
2014,10,04,08,01,13.00
2014,10,04,08,02,13.00
2014,10,04,08,03,13.00
2014,10,04,08,04,13.00
2014,10,04,08,05,13.00
2014,10,04,08,06,13.10
2014,10,04,08,07,13.10
2014,10,04,08,08,13.10
2014,10,04,08,09,13.10
2014,10,04,08,10,13.00
2014,10,04,08,11,13.00
2014,10,04,08,12,13.00
2014,10,04,08,13,13.00
2014,10,04,08,14,13.00
2014,10,04,08,15,13.00
2014,10,04,08,16,13.10
2014,10,04,08,17,13.10
2014,10,04,08,18,13.10
2014,10,04,08,19,13.10
2014,10,04,08,20,13.10
2014,10,04,08,21,13.10
2014,10,04,08,22,13.10
2014,10,04,08,23,13.10
2014,10,04,08,24,13.10
2014,10,04,08,25,13.10
2014,10,04,08,26,13.10
2014,10,04,08,27,13.10
2014,10,04,08,28,13.10
2014,10,04,08,29,13.10
2014,10,04,08,30,13.10
2014,10,04,08,31,13.20
2014,10,04,08,32,13.20
2014,10,04,08,33,13.20
2014,10,04,08,34,13.20
2014,10,04,08,35,13.20
2014,10,04,08,36,13.30
2014,10,04,08,37,13.30
2014,10,04,08,38,13.30
2014,10,04,08,39,13.30
2014,10,04,08,40,13.30
2014,10,04,08,41,13.30
2014,10,04,08,42,13.30
2014,10,04,08,43,13.30
2014,10,04,08,44,13.30
2014,10,04,08,45,13.30
2014,10,04,08,46,13.40
2014,10,04,08,47,13.40
2014,10,04,08,48,13.40
2014,10,04,08,49,13.40
2014,10,04,08,50,13.40
2014,10,04,08,51,13.40
2014,10,04,08,52,13.40
2014,10,04,08,53,13.40
2014,10,04,08,54,13.40
2014,10,04,08,55,13.40
2014,10,04,08,56,13.50
2014,10,04,08,57,13.50
2014,10,04,08,58,13.50
2014,10,04,08,59,13.50
2014,10,04,09,00,13.50
2014,10,04,09,01,13.50
2014,10,04,09,02,13.50
2014,10,04,09,03,13.60
2014,10,04,09,04,13.60
2014,10,04,09,05,13.60
2014,10,04,09,06,13.60
2014,10,04,09,07,13.60
2014,10,04,09,08,13.60
2014,10,04,09,09,13.60
2014,10,04,09,10,13.60
2014,10,04,09,11,13.70
2014,10,04,09,12,13.70
2014,10,04,09,13,13.70
2014,10,04,09,14,13.70
2014,10,04,09,15,13.80
2014,10,04,09,16,13.80
2014,10,04,09,17,13.80
2014,10,04,09,18,13.80
2014,10,04,09,19,13.90
2014,10,04,09,20,13.90
2014,10,04,09,21,13.90
2014,10,04,09,22,13.90
2014,10,04,09,23,13.90
2014,10,04,09,24,14.00
2014,10,04,09,25,14.00
2014,10,04,09,26,14.00
2014,10,04,09,27,14.00
2014,10,04,09,28,14.00
2014,10,04,09,29,14.00
2014,10,04,09,30,14.00
2014,10,04,09,31,14.10
2014,10,04,09,32,14.10
2014,10,04,09,33,14.10
2014,10,04,09,34,14.10
2014,10,04,09,35,14.10
2014,10,04,09,36,14.20
2014,10,04,09,37,14.20
2014,10,04,09,38,14.20
2014,10,04,09,39,14.30
2014,10,04,09,40,14.30
2014,10,04,09,41,14.30
2014,10,04,09,42,14.40
2014,10,04,09,43,14.40
2014,10,04,09,44,14.40
2014,10,04,09,45,14.40
2014,10,04,09,46,14.40
2014,10,04,09,47,14.50
2014,10,04,09,48,14.50
2014,10,04,09,49,14.60
2014,10,04,09,50,14.60
2014,10,04,09,51,14.60
2014,10,04,09,52,14.70
2014,10,04,09,53,14.70
2014,10,04,09,54,14.70
2014,10,04,09,55,14.70
2014,10,04,09,56,14.70
2014,10,04,09,57,14.80
2014,10,04,09,58,14.80
2014,10,04,09,59,14.80
2014,10,04,10,00,14.80
2014,10,04,10,01,14.80
2014,10,04,10,02,14.90
2014,10,04,10,03,14.90
2014,10,04,10,04,14.90
2014,10,04,10,05,14.90
2014,10,04,10,06,15.00
2014,10,04,10,07,15.00
2014,10,04,10,08,15.00
2014,10,04,10,09,15.10
2014,10,04,10,10,15.10
2014,10,04,10,11,15.10
2014,10,04,10,12,15.10
2014,10,04,10,13,15.10
2014,10,04,10,14,15.10
2014,10,04,10,15,15.10
2014,10,04,10,16,15.10
2014,10,04,10,17,15.10
2014,10,04,10,18,15.10
2014,10,04,10,19,15.10
2014,10,04,10,20,15.10
2014,10,04,10,21,15.10
2014,10,04,10,22,15.10
2014,10,04,10,23,15.10
2014,10,04,10,24,15.20
2014,10,04,10,25,15.20
2014,10,04,10,26,15.20
2014,10,04,10,27,15.20
2014,10,04,10,28,15.20
2014,10,04,10,29,15.20
2014,10,04,10,30,15.20
2014,10,04,10,31,15.20
2014,10,04,10,32,15.30
2014,10,04,10,33,15.30
2014,10,04,10,34,15.30
2014,10,04,10,35,15.30
2014,10,04,10,36,15.30
2014,10,04,10,37,15.30
2014,10,04,10,38,15.30
2014,10,04,10,39,15.40
2014,10,04,10,40,15.40
2014,10,04,10,41,15.50
2014,10,04,10,42,15.50
2014,10,04,10,43,15.60
2014,10,04,10,44,15.60
2014,10,04,10,45,15.70
2014,10,04,10,46,15.70
2014,10,04,10,47,15.70
2014,10,04,10,48,15.70
2014,10,04,10,49,15.70
2014,10,04,10,50,15.80
2014,10,04,10,51,15.80
2014,10,04,10,52,15.80
2014,10,04,10,53,15.80
2014,10,04,10,54,15.80
2014,10,04,10,55,15.70
2014,10,04,10,56,15.70
2014,10,04,10,57,15.70
2014,10,04,10,58,15.60
2014,10,04,10,59,15.60
2014,10,04,11,00,15.70
2014,10,04,11,01,15.70
2014,10,04,11,02,15.70
2014,10,04,11,03,15.70
2014,10,04,11,04,15.80
2014,10,04,11,05,15.80
2014,10,04,11,06,15.80
2014,10,04,11,07,15.70
2014,10,04,11,08,15.70
2014,10,04,11,09,15.70
2014,10,04,11,10,15.80
2014,10,04,11,11,15.70
2014,10,04,11,12,15.70
2014,10,04,11,13,15.70
2014,10,04,11,14,15.70
2014,10,04,11,15,15.60
2014,10,04,11,16,15.70
2014,10,04,11,17,15.70
2014,10,04,11,18,15.70
2014,10,04,11,19,15.70
2014,10,04,11,20,15.70
2014,10,04,11,21,15.80
2014,10,04,11,22,15.80
2014,10,04,11,23,15.80
2014,10,04,11,24,15.80
2014,10,04,11,25,15.80
2014,10,04,11,26,15.90
2014,10,04,11,27,15.90
2014,10,04,11,28,16.00
2014,10,04,11,29,16.00
2014,10,04,11,30,16.10
2014,10,04,11,31,16.10
2014,10,04,11,32,16.20
2014,10,04,11,33,16.20
2014,10,04,11,34,16.20
2014,10,04,11,35,16.20
2014,10,04,11,36,16.30
2014,10,04,11,37,16.30
2014,10,04,11,38,16.20
2014,10,04,11,39,16.20
2014,10,04,11,40,16.20
2014,10,04,11,41,16.20
2014,10,04,11,42,16.20
2014,10,04,11,43,16.20
2014,10,04,11,44,16.20
2014,10,04,11,45,16.20
2014,10,04,11,46,16.20
2014,10,04,11,47,16.20
2014,10,04,11,48,16.20
2014,10,04,11,49,16.20
2014,10,04,11,50,16.20
2014,10,04,11,51,16.20
2014,10,04,11,52,16.30
2014,10,04,11,53,16.30
2014,10,04,11,54,16.30
2014,10,04,11,55,16.30
2014,10,04,11,56,16.30
2014,10,04,11,57,16.30
2014,10,04,11,58,16.30
2014,10,04,11,59,16.30
2014,10,04,12,00,16.30
2014,10,04,12,01,16.40
2014,10,04,12,02,16.40
2014,10,04,12,03,16.40
2014,10,04,12,04,16.40
2014,10,04,12,05,16.40
2014,10,04,12,06,16.40
2014,10,04,12,07,16.40
2014,10,04,12,08,16.50
2014,10,04,12,09,16.50
2014,10,04,12,10,16.50
2014,10,04,12,11,16.50
2014,10,04,12,12,16.60
2014,10,04,12,13,16.60
2014,10,04,12,14,16.60
2014,10,04,12,15,16.60
2014,10,04,12,16,16.60
2014,10,04,12,17,16.70
2014,10,04,12,18,16.70
2014,10,04,12,19,16.80
2014,10,04,12,20,16.80
2014,10,04,12,21,16.90
2014,10,04,12,22,16.90
2014,10,04,12,23,16.90
2014,10,04,12,24,17.00
2014,10,04,12,25,17.00
2014,10,04,12,26,17.10
2014,10,04,12,27,17.10
2014,10,04,12,28,17.10
2014,10,04,12,29,17.20
2014,10,04,12,30,17.20
2014,10,04,12,31,17.30
2014,10,04,12,32,17.30
2014,10,04,12,33,17.40
2014,10,04,12,34,17.40
2014,10,04,12,35,17.40
2014,10,04,12,36,17.40
2014,10,04,12,37,17.50
2014,10,04,12,38,17.50
2014,10,04,12,39,17.60
2014,10,04,12,40,17.60
2014,10,04,12,41,17.60
2014,10,04,12,42,17.60
2014,10,04,12,43,17.60
2014,10,04,12,44,17.70
2014,10,04,12,45,17.80
2014,10,04,12,46,17.90
2014,10,04,12,47,18.00
2014,10,04,12,48,18.00
2014,10,04,12,49,18.10
2014,10,04,12,50,18.20
2014,10,04,12,51,18.20
2014,10,04,12,52,18.30
2014,10,04,12,53,18.30
2014,10,04,12,54,18.30
2014,10,04,12,55,18.30
2014,10,04,12,56,18.30
2014,10,04,12,57,18.30
2014,10,04,12,58,18.30
2014,10,04,12,59,18.30
2014,10,04,13,00,18.20
2014,10,04,13,01,18.20
2014,10,04,13,02,18.10
2014,10,04,13,03,18.10
2014,10,04,13,04,18.10
2014,10,04,13,05,18.10
2014,10,04,13,06,18.10
2014,10,04,13,07,18.10
2014,10,04,13,08,18.10
2014,10,04,13,09,18.10
2014,10,04,13,10,18.10
2014,10,04,13,11,18.20
2014,10,04,13,12,18.20
2014,10,04,13,13,18.20
2014,10,04,13,14,18.10
2014,10,04,13,15,18.10
2014,10,04,13,16,18.10
2014,10,04,13,17,18.20
2014,10,04,13,18,18.20
2014,10,04,13,19,18.20
2014,10,04,13,20,18.20
2014,10,04,13,21,18.20
2014,10,04,13,22,18.20
2014,10,04,13,23,18.20
2014,10,04,13,24,18.30
2014,10,04,13,25,18.30
2014,10,04,13,26,18.30
2014,10,04,13,27,18.40
2014,10,04,13,28,18.50
2014,10,04,13,29,18.50
2014,10,04,13,30,18.60
2014,10,04,13,31,18.60
2014,10,04,13,32,18.60
2014,10,04,13,33,18.60
2014,10,04,13,34,18.60
2014,10,04,13,35,18.60
2014,10,04,13,36,18.60
2014,10,04,13,37,18.50
2014,10,04,13,38,18.60
2014,10,04,13,39,18.60
2014,10,04,13,40,18.50
2014,10,04,13,41,18.50
2014,10,04,13,42,18.50
2014,10,04,13,43,18.50
2014,10,04,13,44,18.50
2014,10,04,13,45,18.50
2014,10,04,13,46,18.50
2014,10,04,13,47,18.50
2014,10,04,13,48,18.50
2014,10,04,13,49,18.50
2014,10,04,13,50,18.50
2014,10,04,13,51,18.40
2014,10,04,13,52,18.40
2014,10,04,13,53,18.40
2014,10,04,13,54,18.40
2014,10,04,13,55,18.40
2014,10,04,13,56,18.40
2014,10,04,13,57,18.40
2014,10,04,13,58,18.40
2014,10,04,13,59,18.30
2014,10,04,14,00,18.40
2014,10,04,14,01,18.40
2014,10,04,14,02,18.40
2014,10,04,14,03,18.50
2014,10,04,14,04,18.60
2014,10,04,14,05,18.70
2014,10,04,14,06,18.80
2014,10,04,14,07,19.00
2014,10,04,14,08,19.10
2014,10,04,14,09,19.10
2014,10,04,14,10,19.10
2014,10,04,14,11,19.10
2014,10,04,14,12,19.10
2014,10,04,14,13,19.10
2014,10,04,14,14,19.00
2014,10,04,14,15,19.00
2014,10,04,14,16,18.90
2014,10,04,14,17,18.90
2014,10,04,14,18,18.90
2014,10,04,14,19,18.80
2014,10,04,14,20,18.80
2014,10,04,14,21,18.80
2014,10,04,14,22,18.80
2014,10,04,14,23,18.80
2014,10,04,14,24,18.90
2014,10,04,14,25,18.90
2014,10,04,14,26,19.00
2014,10,04,14,27,19.00
2014,10,04,14,28,19.10
2014,10,04,14,29,19.10
2014,10,04,14,30,19.10
2014,10,04,14,31,19.10
2014,10,04,14,32,19.10
2014,10,04,14,33,19.20
2014,10,04,14,34,19.20
2014,10,04,14,35,19.20
2014,10,04,14,36,19.20
2014,10,04,14,37,19.10
2014,10,04,14,38,19.10
2014,10,04,14,39,19.00
2014,10,04,14,40,19.00
2014,10,04,14,41,19.00
2014,10,04,14,42,18.90
2014,10,04,14,43,18.90
2014,10,04,14,44,18.90
2014,10,04,14,45,18.90
2014,10,04,14,46,18.90
2014,10,04,14,47,18.90
2014,10,04,14,48,19.00
2014,10,04,14,49,19.00
2014,10,04,14,50,19.00
2014,10,04,14,51,18.90
2014,10,04,14,52,18.90
2014,10,04,14,53,18.80
2014,10,04,14,54,18.70
2014,10,04,14,55,18.70
2014,10,04,14,56,18.60
2014,10,04,14,57,18.60
2014,10,04,14,58,18.50
2014,10,04,14,59,18.50
2014,10,04,15,00,18.40
2014,10,04,15,01,18.30
2014,10,04,15,02,18.30
2014,10,04,15,03,18.20
2014,10,04,15,04,18.20
2014,10,04,15,05,18.20
2014,10,04,15,06,18.20
2014,10,04,15,07,18.20
2014,10,04,15,08,18.20
2014,10,04,15,09,18.30
2014,10,04,15,10,18.30
2014,10,04,15,11,18.30
2014,10,04,15,12,18.30
2014,10,04,15,13,18.30
2014,10,04,15,14,18.30
2014,10,04,15,15,18.30
2014,10,04,15,16,18.30
2014,10,04,15,17,18.30
2014,10,04,15,18,18.30
2014,10,04,15,19,18.30
2014,10,04,15,20,18.20
2014,10,04,15,21,18.20
2014,10,04,15,22,18.10
2014,10,04,15,23,18.10
2014,10,04,15,24,18.10
2014,10,04,15,25,18.10
2014,10,04,15,26,18.00
2014,10,04,15,27,18.00
2014,10,04,15,28,18.00
2014,10,04,15,29,17.90
2014,10,04,15,30,17.90
2014,10,04,15,31,17.90
2014,10,04,15,32,17.90
2014,10,04,15,33,17.90
2014,10,04,15,34,17.90
2014,10,04,15,35,17.90
2014,10,04,15,36,17.80
2014,10,04,15,37,17.80
2014,10,04,15,38,17.80
2014,10,04,15,39,17.80
2014,10,04,15,40,17.80
2014,10,04,15,41,17.70
2014,10,04,15,42,17.70
2014,10,04,15,43,17.70
2014,10,04,15,44,17.70
2014,10,04,15,45,17.70
2014,10,04,15,46,17.70
2014,10,04,15,47,17.70
2014,10,04,15,48,17.70
2014,10,04,15,49,17.70
2014,10,04,15,50,17.60
2014,10,04,15,51,17.60
2014,10,04,15,52,17.60
2014,10,04,15,53,17.60
2014,10,04,15,54,17.60
2014,10,04,15,55,17.60
2014,10,04,15,56,17.60
2014,10,04,15,57,17.50
2014,10,04,15,58,17.50
2014,10,04,15,59,17.50
2014,10,04,16,00,17.50
2014,10,04,16,01,17.50
2014,10,04,16,02,17.50
2014,10,04,16,03,17.50
2014,10,04,16,04,17.60
2014,10,04,16,05,17.60
2014,10,04,16,06,17.60
2014,10,04,16,07,17.70
2014,10,04,16,08,17.70
2014,10,04,16,09,17.70
2014,10,04,16,10,17.70
2014,10,04,16,11,17.70
2014,10,04,16,12,17.80
2014,10,04,16,13,17.80
2014,10,04,16,14,17.80
2014,10,04,16,15,17.80
2014,10,04,16,16,17.90
2014,10,04,16,17,17.90
2014,10,04,16,18,17.90
2014,10,04,16,19,18.00
2014,10,04,16,20,18.00
2014,10,04,16,21,18.10
2014,10,04,16,22,18.10
2014,10,04,16,23,18.20
2014,10,04,16,24,18.20
2014,10,04,16,25,18.20
2014,10,04,16,26,18.20
2014,10,04,16,27,18.20
2014,10,04,16,28,18.20
2014,10,04,16,29,18.10
2014,10,04,16,30,18.10
2014,10,04,16,31,18.10
2014,10,04,16,32,18.10
2014,10,04,16,33,18.00
2014,10,04,16,34,17.90
2014,10,04,16,35,17.90
2014,10,04,16,36,17.90
2014,10,04,16,37,17.80
2014,10,04,16,38,17.80
2014,10,04,16,39,17.80
2014,10,04,16,40,17.70
2014,10,04,16,41,17.70
2014,10,04,16,42,17.70
2014,10,04,16,43,17.70
2014,10,04,16,44,17.60
2014,10,04,16,45,17.60
2014,10,04,16,46,17.60
2014,10,04,16,47,17.60
2014,10,04,16,48,17.60
2014,10,04,16,49,17.60
2014,10,04,16,50,17.60
2014,10,04,16,51,17.60
2014,10,04,16,52,17.60
2014,10,04,16,53,17.60
2014,10,04,16,54,17.60
2014,10,04,16,55,17.60
2014,10,04,16,56,17.60
2014,10,04,16,57,17.60
2014,10,04,16,58,17.60
2014,10,04,16,59,17.60
2014,10,04,17,00,17.60
2014,10,04,17,01,17.60
2014,10,04,17,02,17.60
2014,10,04,17,03,17.60
2014,10,04,17,04,17.60
2014,10,04,17,05,17.50
2014,10,04,17,06,17.50
2014,10,04,17,07,17.60
2014,10,04,17,08,17.60
2014,10,04,17,09,17.60
2014,10,04,17,10,17.60
2014,10,04,17,11,17.60
2014,10,04,17,12,17.60
2014,10,04,17,13,17.60
2014,10,04,17,14,17.60
2014,10,04,17,15,17.60
2014,10,04,17,16,17.50
2014,10,04,17,17,17.50
2014,10,04,17,18,17.50
2014,10,04,17,19,17.50